Hourly Weather Dzierwany

Today, 15 May, Saturday

Time Temperature Precipitation Wind Pressure Humidity
00:00 +9°C° 0 mm 1 mps 729 mmHg 90%
01:00 +9°C° 0 mm 1 mps 729 mmHg 91%
02:00 +8°C° 0 mm 1 mps 729 mmHg 92%
03:00 +8°C° 0 mm 1 mps 729 mmHg 92%
04:00 +8°C° 0 mm 1 mps 729 mmHg 92%
05:00 +8°C° 0 mm 1 mps 730 mmHg 92%
06:00 +9°C° 0 mm 1 mps 730 mmHg 86%
07:00 +11°C° 0 mm 1 mps 730 mmHg 81%
08:00 +13°C° 0 mm 1 mps 730 mmHg 75%
09:00 +14°C° 0 mm 2 mps 731 mmHg 72%
10:00 +15°C° 0 mm 2 mps 731 mmHg 70%
11:00 +16°C° 0 mm 2 mps 731 mmHg 67%
12:00 +16°C° 0.3 mm 3 mps 731 mmHg 70%
13:00 +15°C° 0.3 mm 4 mps 731 mmHg 73%
14:00 +14°C° 0.3 mm 4 mps 731 mmHg 76%
15:00 +14°C° 0.1 mm 4 mps 731 mmHg 78%
16:00 +13°C° 0.1 mm 4 mps 732 mmHg 79%
17:00 +13°C° 0.1 mm 4 mps 732 mmHg 81%
18:00 +12°C° 0 mm 3 mps 732 mmHg 84%
19:00 +11°C° 0 mm 3 mps 732 mmHg 87%
20:00 +12°C° 0 mm 2 mps 732 mmHg 91%
21:00 +10°C° 0 mm 2 mps 732 mmHg 92%
22:00 +9°C° 0 mm 2 mps 732 mmHg 93%
23:00 +9°C° 0 mm 1 mps 732 mmHg 95%

Tomorrow, 16 May, Sunday

Time Temperature Precipitation Wind Pressure Humidity
00:00 +9°C° 0 mm 1 mps 732 mmHg 95%
01:00 +8°C° 0 mm 1 mps 732 mmHg 94%
02:00 +8°C° 0 mm 1 mps 732 mmHg 94%
03:00 +8°C° 0 mm 1 mps 732 mmHg 94%
04:00 +7°C° 0 mm 2 mps 732 mmHg 94%
05:00 +6°C° 0 mm 2 mps 732 mmHg 94%
06:00 +8°C° 0 mm 2 mps 732 mmHg 89%
07:00 +10°C° 0 mm 3 mps 732 mmHg 84%
08:00 +12°C° 0 mm 3 mps 732 mmHg 78%
09:00 +13°C° 0 mm 3 mps 732 mmHg 72%
10:00 +15°C° 0 mm 4 mps 732 mmHg 67%
11:00 +17°C° 0 mm 4 mps 732 mmHg 61%
12:00 +18°C° 0.3 mm 4 mps 732 mmHg 62%
13:00 +17°C° 0.3 mm 5 mps 732 mmHg 63%
14:00 +17°C° 0.3 mm 5 mps 731 mmHg 65%
15:00 +17°C° 0.5 mm 4 mps 731 mmHg 70%
16:00 +17°C° 0.5 mm 4 mps 731 mmHg 76%
17:00 +15°C° 0.5 mm 4 mps 730 mmHg 82%
18:00 +14°C° 0.7 mm 4 mps 730 mmHg 85%
19:00 +13°C° 0.7 mm 4 mps 730 mmHg 88%
20:00 +13°C° 0.7 mm 4 mps 730 mmHg 91%
21:00 +12°C° 0.3 mm 4 mps 729 mmHg 92%
22:00 +12°C° 0.3 mm 3 mps 729 mmHg 94%
23:00 +11°C° 0.3 mm 3 mps 729 mmHg 95%

Day after tomorrow, 17 May, Monday

Time Temperature Precipitation Wind Pressure Humidity
00:00 +11°C° 0.1 mm 3 mps 729 mmHg 96%
01:00 +11°C° 0.1 mm 3 mps 728 mmHg 96%
02:00 +11°C° 0.1 mm 3 mps 728 mmHg 97%
03:00 +10°C° 0.1 mm 3 mps 728 mmHg 97%
04:00 +10°C° 0.1 mm 3 mps 729 mmHg 96%
05:00 +8°C° 0.1 mm 4 mps 729 mmHg 96%
06:00 +10°C° 0 mm 3 mps 729 mmHg 93%
07:00 +10°C° 0 mm 3 mps 730 mmHg 89%
08:00 +12°C° 0 mm 2 mps 730 mmHg 86%
09:00 +13°C° 0 mm 2 mps 730 mmHg 79%
10:00 +15°C° 0 mm 2 mps 730 mmHg 71%
11:00 +16°C° 0 mm 2 mps 731 mmHg 64%
12:00 +16°C° 0 mm 2 mps 731 mmHg 63%
13:00 +16°C° 0 mm 2 mps 730 mmHg 62%
14:00 +17°C° 0 mm 2 mps 730 mmHg 61%
15:00 +17°C° 0 mm 2 mps 730 mmHg 61%
16:00 +18°C° 0 mm 1 mps 730 mmHg 61%
17:00 +18°C° 0 mm 1 mps 730 mmHg 61%
18:00 +16°C° 0.1 mm 1 mps 730 mmHg 67%
19:00 +14°C° 0.1 mm 1 mps 730 mmHg 73%
20:00 +13°C° 0.1 mm 1 mps 729 mmHg 79%
21:00 +12°C° 0 mm 1 mps 729 mmHg 82%
22:00 +12°C° 0 mm 1 mps 729 mmHg 85%
23:00 +11°C° 0 mm 1 mps 729 mmHg 88%

18 May, Tuesday

Time Temperature Precipitation Wind Pressure Humidity
00:00 +11°C° 0.1 mm 1 mps 729 mmHg 89%
01:00 +10°C° 0.1 mm 2 mps 729 mmHg 90%
02:00 +10°C° 0.1 mm 2 mps 729 mmHg 91%
03:00 +10°C° 0 mm 2 mps 728 mmHg 92%
04:00 +10°C° 0 mm 2 mps 728 mmHg 93%
05:00 +10°C° 0 mm 2 mps 728 mmHg 94%
06:00 +10°C° 0.1 mm 2 mps 728 mmHg 94%
07:00 +10°C° 0.1 mm 2 mps 728 mmHg 94%
08:00 +10°C° 0.1 mm 2 mps 728 mmHg 94%
09:00 +11°C° 0.2 mm 3 mps 728 mmHg 91%
10:00 +11°C° 0.2 mm 4 mps 729 mmHg 89%
11:00 +11°C° 0.2 mm 4 mps 729 mmHg 87%
12:00 +12°C° 0.3 mm 5 mps 729 mmHg 84%
13:00 +11°C° 0.3 mm 6 mps 729 mmHg 81%
14:00 +13°C° 0.3 mm 6 mps 729 mmHg 79%
15:00 +11°C° 0.2 mm 6 mps 729 mmHg 82%
16:00 +10°C° 0.2 mm 5 mps 730 mmHg 85%
17:00 +10°C° 0.2 mm 5 mps 730 mmHg 88%
18:00 +10°C° 0.1 mm 4 mps 730 mmHg 89%
19:00 +10°C° 0.1 mm 3 mps 730 mmHg 91%
20:00 +9°C° 0.1 mm 2 mps 731 mmHg 93%
21:00 +9°C° 0 mm 2 mps 731 mmHg 94%
22:00 +8°C° 0 mm 2 mps 731 mmHg 95%
23:00 +7°C° 0 mm 2 mps 731 mmHg 96%

19 May, Wednesday

Time Temperature Precipitation Wind Pressure Humidity
00:00 +7°C° 0 mm 2 mps 731 mmHg 96%
01:00 +7°C° 0 mm 2 mps 731 mmHg 96%
02:00 +7°C° 0 mm 2 mps 732 mmHg 97%
03:00 +6°C° 0 mm 2 mps 732 mmHg 97%
04:00 +6°C° 0 mm 2 mps 732 mmHg 97%
05:00 +6°C° 0 mm 2 mps 732 mmHg 97%
06:00 +7°C° 0 mm 2 mps 732 mmHg 92%
07:00 +9°C° 0 mm 2 mps 732 mmHg 87%
08:00 +12°C° 0 mm 2 mps 733 mmHg 83%
09:00 +12°C° 0.1 mm 3 mps 733 mmHg 76%
10:00 +13°C° 0.1 mm 3 mps 733 mmHg 70%
11:00 +14°C° 0.1 mm 3 mps 733 mmHg 63%
12:00 +14°C° 0.2 mm 3 mps 733 mmHg 62%
13:00 +14°C° 0.2 mm 3 mps 733 mmHg 61%
14:00 +16°C° 0.2 mm 3 mps 733 mmHg 61%
15:00 +14°C° 0.4 mm 3 mps 733 mmHg 63%
16:00 +14°C° 0.4 mm 3 mps 733 mmHg 66%
17:00 +14°C° 0.4 mm 3 mps 733 mmHg 69%
18:00 +12°C° 0.5 mm 3 mps 733 mmHg 76%
19:00 +11°C° 0.5 mm 3 mps 733 mmHg 83%
20:00 +10°C° 0.5 mm 2 mps 733 mmHg 90%
21:00 +9°C° 0 mm 3 mps 734 mmHg 92%
22:00 +8°C° 0 mm 3 mps 734 mmHg 94%
23:00 +7°C° 0 mm 3 mps 734 mmHg 96%

20 May, Thursday

Time Temperature Precipitation Wind Pressure Humidity
00:00 +7°C° 0 mm 3 mps 734 mmHg 96%
01:00 +7°C° 0 mm 3 mps 734 mmHg 96%
02:00 +7°C° 0 mm 3 mps 734 mmHg 96%
03:00 +5°C° 0 mm 3 mps 735 mmHg 95%
04:00 +5°C° 0 mm 2 mps 735 mmHg 94%
05:00 +4°C° 0 mm 2 mps 735 mmHg 94%
06:00 +6°C° 0 mm 2 mps 735 mmHg 89%
07:00 +7°C° 0 mm 3 mps 735 mmHg 85%
08:00 +9°C° 0 mm 3 mps 735 mmHg 80%
09:00 +10°C° 0 mm 3 mps 735 mmHg 73%
10:00 +12°C° 0 mm 3 mps 735 mmHg 66%
11:00 +13°C° 0 mm 3 mps 735 mmHg 59%
12:00 +12°C° 0.2 mm 4 mps 735 mmHg 65%
13:00 +12°C° 0.2 mm 4 mps 735 mmHg 70%
14:00 +10°C° 0.2 mm 5 mps 735 mmHg 75%
15:00 +10°C° 0.3 mm 5 mps 735 mmHg 75%
16:00 +10°C° 0.3 mm 5 mps 736 mmHg 75%
17:00 +9°C° 0.3 mm 5 mps 736 mmHg 76%
18:00 +8°C° 0 mm 5 mps 736 mmHg 77%
19:00 +7°C° 0 mm 4 mps 736 mmHg 78%
20:00 +7°C° 0 mm 3 mps 736 mmHg 79%
21:00 +5°C° 0 mm 3 mps 736 mmHg 82%
22:00 +5°C° 0 mm 2 mps 736 mmHg 85%
23:00 +4°C° 0 mm 2 mps 736 mmHg 88%
Show more

We Need Your Consent

Meteoprog and our Service Providers may store and access personal data such as cookies, device identifiers or other similar technologies on your device and process such data to personalise content and ads, as well as provide social media features and to analyse the traffic.

  • Store and/or access information on your device

    Cookies, device identifiers or other information can be stored or accessed on your device for the purposes indicated above.

  • Personalised ads and content, ad and content measurement, audience insights, and products development

    Ads and content can be personalised based on a profile. More data can be added to better personalise ads and content. Ad and content performance can be measured. Insights about the audience who saw the ads and content can be derived. Such data can be used to develop or improve user’s experience, systems and software.

By clicking ‘I Agree’ you will allow the use of indicated cookies, device identifiers, web beacons or other similar technologies. Your settings can be changed in the browser on your device.

For certain purposes, legitimate interests may be relied on, rather than consent. You can read more about this in our Privacy and Cookie Policy.